User: anonymous   Login
Location: New Frontier Mobile Home Park
(32.8448°N, 116.9675°W)
Time: 22:27:16
(UTC+00:00)
Language:

Cosmos 2221 Rocket - Orbit

View from above orbital plane
View from above orbital plane
View from above satellite
View from above satellite

Ground track
Ground track

The orbit data is extracted from the following two-line orbital elements,

1 22237U 92080B   20270.04579261  .00000061  00000-0  52287-5 0  9996
2 22237  82.5092  84.2896 0018265 250.1990 109.7253 14.78417621500260
Epoch (UTC): 26 September 2020 01:05:56
Eccentricity: 0.0018265
inclination: 82.5092°
perigee height: 621 km
apogee height: 647 km
right ascension of ascending node: 84.2896°
argument of perigee: 250.1990°
revolutions per day: 14.78417621
mean anomaly at epoch: 109.7253°
orbit number at epoch: 50026

The dashed part of the orbit path shows where the satellite is in the earth's shadow,  

DLR